Zurück zum Katalog

STARLINK-11411

AktivKommunikationVLEO
NORAD 62018·PAYLOAD·🇺🇸 United States

Gestartet Nov 18, 2024 von Vandenberg Space Force Base

Loading…

Nächste Überflüge (nächste 24 Stunden)

TLE

AktuellSource: CelesTrak SupGP

Epoche: Sep 15, 2026, 03:40 UTC

1 62018C 24213L   26258.15326389 -.00024554  00000+0 -20219-3 0  2585
2 62018  53.1569 187.2756 0001246  85.6445 237.6689 15.69729389    10

Verfolge STARLINK-11411 in Echtzeit mit AllMySat

Download on the App Store